Ibiza, Spain

7:26 AM CEST on September 30, 2016 (GMT +0200)
Ibiza

Weather History for LEIB - December, 2012

Change the Weather History Date:

Tuesday, December 11, 2012

  Actual Average Record
Temperature  
Mean Temperature 53 °F -  
Max Temperature 58 °F 60 °F 64 °F (1997)
Min Temperature 48 °F 48 °F 42 °F (2007)
Degree Days  
Heating Degree Days 12    
Growing Degree Days 3 (Base 50)    
Moisture  
Dew Point 50 °F    
Average Humidity 87    
Maximum Humidity 94    
Minimum Humidity 70    
Precipitation  
Precipitation 0.01 in - - ()
Sea Level Pressure  
Sea Level Pressure 30.08 in    
Wind  
Wind Speed 6 mph ()    
Max Wind Speed 14 mph    
Max Gust Speed -    
Visibility 6.5 miles    
Events      
Averages and records for this station are not official NWS values.
T = Trace of Precipitation, MM = Missing Value Source: Averaged Metar Reports

Daily Weather History Graph

Daily Weather History Graph

Search for Another Location

Airport or City:

Trip Planner

Search our weather history database for the weather conditions in past years. The results will help you decide how hot, cold, wet, or windy it might be!

Date:

Astronomy

Dec. 11, 2012 Rise Set
Actual Time 8:03 AM CET 5:32 PM CET
Civil Twilight 7:33 AM CET 6:02 PM CET
Nautical Twilight 6:59 AM CET 6:35 PM CET
Astronomical Twilight 6:27 AM CET 7:08 PM CET
Moon 5:40 AM CET (12/11) 3:57 PM CET (12/11)
Length of Visible Light 10h 29m
Length of Day
9h 29m
Waning Crescent, 5% of the Moon is Illuminated
Dec 11
Waning Crescent
Dec 13
New
Dec 20
First Quarter
Dec 28
Full
Jan 5
Last Quarter

Hourly Weather History & Observations

Time (CET) Temp. Dew Point Humidity Pressure Visibility Wind Dir Wind Speed Gust Speed Precip Events Conditions
12:00 AM 51.8 °F 46.4 °F 82% 30.09 in - North 8.1 mph - N/A   Clear
1:00 AM 50 °F 43 °F 70% 30.10 in 12 mi North 9.2 mph - -   Scattered Clouds
4:00 AM 51.8 °F 48.2 °F 88% 30.09 in 6.2 mi North 8.1 mph - N/A   Partly Cloudy
5:30 AM 51.8 °F 48.2 °F 88% 30.09 in 6.2 mi North 4.6 mph - N/A   Partly Cloudy
6:00 AM 50.0 °F 46.4 °F 87% 30.09 in 6.2 mi NNW 6.9 mph - N/A   Partly Cloudy
6:30 AM 50.0 °F 48.2 °F 94% 30.09 in 6.2 mi NNW 5.8 mph - N/A   Partly Cloudy
7:00 AM 52 °F 47 °F 78% 30.10 in 12 mi NW 5.8 mph - -   Scattered Clouds
7:00 AM 51.8 °F 48.2 °F 88% 30.09 in 6.2 mi NNW 5.8 mph - N/A   Scattered Clouds
7:30 AM 53.6 °F 50.0 °F 88% 30.09 in 6.2 mi Variable 2.3 mph - N/A   Light Drizzle
8:00 AM 53.6 °F 50.0 °F 88% 30.09 in 6.2 mi Variable 1.2 mph - N/A   Scattered Clouds
8:30 AM 53.6 °F 50.0 °F 88% 30.09 in 6.2 mi NNW 3.5 mph - N/A   Scattered Clouds
9:00 AM 53.6 °F 50.0 °F 88% 30.09 in 6.2 mi Calm Calm - N/A   Scattered Clouds
9:30 AM 53.6 °F 51.8 °F 94% 30.09 in 6.2 mi North 3.5 mph - N/A   Scattered Clouds
10:00 AM 53.6 °F 51.8 °F 94% 30.09 in 6.2 mi NNW 6.9 mph - N/A   Mostly Cloudy
10:30 AM 53.6 °F 51.8 °F 94% 30.09 in 6.2 mi NNW 3.5 mph - N/A   Scattered Clouds
11:00 AM 55.4 °F 51.8 °F 88% 30.09 in 6.2 mi NNW 4.6 mph - N/A   Scattered Clouds
11:30 AM 55.4 °F 51.8 °F 88% 30.09 in 6.2 mi Variable 1.2 mph - N/A   Scattered Clouds
12:00 PM 55.4 °F 51.8 °F 88% 30.09 in 6.2 mi North 3.5 mph - N/A   Mostly Cloudy
12:30 PM 55.4 °F 51.8 °F 88% 30.09 in 6.2 mi North 6.9 mph - N/A   Mostly Cloudy
1:00 PM 57 °F 51 °F 74% 30.10 in 9 mi North 9.2 mph - -   Partly Cloudy
1:00 PM 57.2 °F 53.6 °F 88% 30.09 in 6.2 mi North 8.1 mph - N/A   Scattered Clouds
1:30 PM 57.2 °F 51.8 °F 82% 30.09 in 6.2 mi North 11.5 mph - N/A   Scattered Clouds
2:00 PM 57.2 °F 51.8 °F 82% 30.06 in 6.2 mi North 12.7 mph - N/A   Mostly Cloudy
2:30 PM 55.4 °F 51.8 °F 88% 30.06 in 6.2 mi North 10.4 mph - N/A   Mostly Cloudy
3:00 PM 55.4 °F 51.8 °F 88% 30.06 in 6.2 mi North 10.4 mph - N/A   Mostly Cloudy
3:30 PM 55.4 °F 51.8 °F 88% 30.06 in 6.2 mi North 10.4 mph - N/A   Mostly Cloudy
4:00 PM 53.6 °F 51.8 °F 94% 30.06 in 6.2 mi North 11.5 mph - N/A   Mostly Cloudy
4:30 PM 53.6 °F 51.8 °F 94% 30.06 in 6.2 mi North 12.7 mph - N/A   Mostly Cloudy
5:00 PM 53.6 °F 51.8 °F 94% 30.06 in 6.2 mi North 13.8 mph - N/A   Scattered Clouds
5:30 PM 53.6 °F 50.0 °F 88% 30.06 in 6.2 mi NNE 9.2 mph - N/A   Scattered Clouds
6:00 PM 51.8 °F 50.0 °F 94% 30.06 in 6.2 mi NNE 8.1 mph - N/A   Scattered Clouds
6:30 PM 53.6 °F 50.0 °F 88% 30.06 in 6.2 mi North 6.9 mph - N/A   Scattered Clouds
7:00 PM 53 °F 47 °F 74% 30.09 in 6 mi North 9.2 mph - -   Partly Cloudy
7:00 PM 53.6 °F 50.0 °F 88% 30.06 in 6.2 mi North 8.1 mph - N/A   Scattered Clouds
7:30 PM 53.6 °F 50.0 °F 88% 30.06 in 6.2 mi North 9.2 mph - N/A   Scattered Clouds
8:00 PM 53.6 °F 48.2 °F 82% 30.09 in 6.2 mi North 6.9 mph - N/A   Mostly Cloudy
8:30 PM 53.6 °F 48.2 °F 82% 30.09 in 6.2 mi North 6.9 mph - N/A   Mostly Cloudy
9:00 PM 51.8 °F 48.2 °F 88% 30.09 in 6.2 mi North 8.1 mph - N/A   Scattered Clouds
9:30 PM 51.8 °F 48.2 °F 88% 30.09 in 6.2 mi North 9.2 mph - N/A   Scattered Clouds
10:00 PM 51.8 °F 48.2 °F 88% 30.09 in 6.2 mi North 8.1 mph - N/A   Scattered Clouds
10:30 PM 51.8 °F 48.2 °F 88% 30.09 in 6.2 mi North 6.9 mph - N/A   Scattered Clouds
11:00 PM 51.8 °F 48.2 °F 88% 30.09 in 6.2 mi North 8.1 mph - N/A   Partly Cloudy
11:30 PM 51.8 °F 48.2 °F 88% 30.09 in 6.2 mi North 8.1 mph - N/A   Scattered Clouds